Cedar Rapids, IA

1:59 PM CDT on May 28, 2017 (GMT -0500)
The Eastern Iowa Airport

Weather History for KCID - October, 2012

Change the Weather History Date:

Monday, October 8, 2012

  Actual Average Record
Temperature  
Mean Temperature 46 °F 54 °F  
Max Temperature 62 °F 65 °F 89 °F (1916)
Min Temperature 30 °F 42 °F 25 °F (1976)
Degree Days  
Heating Degree Days 19 12  
Month to date heating degree days 141 87  
Since 1 July heating degree days 359 244  
Cooling Degree Days 0 1  
Month to date cooling degree days 0 8  
Year to date cooling degree days 1044 748  
Moisture  
Dew Point 29 °F    
Average Humidity 55    
Maximum Humidity 78    
Minimum Humidity 32    
Precipitation  
Precipitation 0.00 in 0.09 in 1.42 in (1958)
Month to date precipitation T 0.75  
Year to date precipitation 17.66 29.21  
Sea Level Pressure  
Sea Level Pressure 29.97 in    
Wind  
Wind Speed 16 mph (South)    
Max Wind Speed 30 mph    
Max Gust Speed 40 mph    
Visibility 10 miles    
Events      
T = Trace of Precipitation, MM = Missing Value Source: NWS Daily Summary

Daily Weather History Graph

Daily Weather History Graph

Search for Another Location

Airport or City:

Trip Planner

Search our weather history database for the weather conditions in past years. The results will help you decide how hot, cold, wet, or windy it might be!

Date:

Astronomy

Oct. 08, 2012 Rise Set
Actual Time 7:11 AM CDT 6:35 PM CDT
Civil Twilight 6:44 AM CDT 7:03 PM CDT
Nautical Twilight 6:11 AM CDT 7:35 PM CDT
Astronomical Twilight 5:39 AM CDT 8:08 PM CDT
Moon No Moon Rise 2:31 PM CDT (10/8)
Length of Visible Light 12h 19m
Length of Day
11h 23m
Last Quarter, 46% of the Moon is Illuminated
Oct 8
Last Quarter
Oct 15
New
Oct 21
First Quarter
Oct 29
Full
Nov 6
Last Quarter

Hourly Weather History & Observations

Time (CDT) Temp. Windchill Dew Point Humidity Pressure Visibility Wind Dir Wind Speed Gust Speed Precip Events Conditions
12:52 AM 32.0 °F 25.6 °F 21.0 °F 64% 30.09 in 10.0 mi South 6.9 mph - N/A   Clear
1:52 AM 33.1 °F 26.1 °F 23.0 °F 66% 30.08 in 10.0 mi South 8.1 mph - N/A   Clear
2:52 AM 32.0 °F 25.6 °F 23.0 °F 69% 30.07 in 10.0 mi South 6.9 mph - N/A   Clear
3:52 AM 32.0 °F 26.4 °F 23.0 °F 69% 30.05 in 10.0 mi South 5.8 mph - N/A   Clear
4:52 AM 30.0 °F 23.2 °F 23.0 °F 75% 30.05 in 10.0 mi South 6.9 mph - N/A   Clear
5:52 AM 32.0 °F 24.2 °F 25.0 °F 75% 30.05 in 10.0 mi South 9.2 mph - N/A   Clear
6:52 AM 32.0 °F 24.2 °F 26.1 °F 79% 30.05 in 10.0 mi South 9.2 mph - N/A   Clear
7:52 AM 34.0 °F 25.5 °F 27.0 °F 75% 30.05 in 10.0 mi South 11.5 mph - N/A   Clear
8:52 AM 39.9 °F 32.1 °F 28.9 °F 65% 30.05 in 10.0 mi South 13.8 mph - N/A   Clear
9:52 AM 46.9 °F - 30.9 °F 54% 30.03 in 10.0 mi South 19.6 mph 26.5 mph N/A   Clear
10:52 AM 52.0 °F - 30.9 °F 45% 30.01 in 10.0 mi SSW 21.9 mph 32.2 mph N/A   Clear
11:52 AM 55.9 °F - 32.0 °F 40% 29.99 in 10.0 mi SSW 21.9 mph 31.1 mph N/A   Clear
12:52 PM 57.9 °F - 33.1 °F 39% 29.96 in 10.0 mi SSW 21.9 mph 33.4 mph N/A   Clear
1:52 PM 61.0 °F - 32.0 °F 34% 29.94 in 10.0 mi SSW 25.3 mph 33.4 mph N/A   Overcast
2:52 PM 60.1 °F - 30.9 °F 33% 29.91 in 10.0 mi SSW 18.4 mph 33.4 mph N/A   Partly Cloudy
3:52 PM 60.1 °F - 30.9 °F 33% 29.90 in 10.0 mi SW 19.6 mph 25.3 mph N/A   Clear
4:52 PM 61.0 °F - 30.0 °F 31% 29.88 in 10.0 mi SSW 21.9 mph 31.1 mph N/A   Clear
5:52 PM 59.0 °F - 30.0 °F 33% 29.88 in 10.0 mi South 20.7 mph - N/A   Clear
6:52 PM 53.6 °F - 30.2 °F 41% 29.87 in 10.0 mi South 16.1 mph - N/A   Clear
7:52 PM 53.1 °F - 32.0 °F 45% 29.90 in 10.0 mi South 15.0 mph - N/A   Clear
8:52 PM 52.0 °F - 32.0 °F 47% 29.90 in 10.0 mi South 15.0 mph - N/A   Scattered Clouds
9:52 PM 52.0 °F - 33.1 °F 49% 29.90 in 10.0 mi South 17.3 mph 25.3 mph N/A   Clear
10:52 PM 51.1 °F - 33.1 °F 50% 29.88 in 10.0 mi South 23.0 mph 27.6 mph N/A   Clear
11:52 PM 51.1 °F - 33.1 °F 50% 29.88 in 10.0 mi SSW 18.4 mph - N/A   Partly Cloudy